| time (UTC) | temp F | wind direction | speed MPH | gust MPH | rain 1hr in | rain 24hr in | rain mn in | humidity % | barometer mb |
| 20260510153035 | 63 | 113 | 2.0 | 8.0 | 0.00 | 0.00 | 0.00 | 49 | 1031.3 |
| 20260510152517 | 63 | 124 | 2.0 | 9.0 | 0.00 | 0.00 | 0.00 | 51 | 1031.3 |
| 20260510152019 | 62 | 92 | 3.0 | 9.0 | 0.00 | 0.00 | 0.00 | 50 | 1031.3 |
| 20260510151517 | 62 | 149 | 2.0 | 7.0 | 0.00 | 0.00 | 0.00 | 49 | 1031.3 |
| 20260510151017 | 62 | 80 | 2.0 | 9.0 | 0.00 | 0.00 | 0.00 | 51 | 1031.3 |
| 20260510150525 | 62 | 136 | 3.0 | 9.0 | 0.00 | 0.00 | 0.00 | 48 | 1031.3 |
| 20260510150017 | 61 | 107 | 4.0 | 8.0 | 0.00 | 0.00 | 0.00 | 49 | 1031.3 |
| 20260510145516 | 61 | 106 | 1.0 | 7.0 | 0.00 | 0.00 | 0.00 | 51 | 1031.3 |
| 20260510145016 | 61 | 114 | 2.0 | 9.0 | 0.00 | 0.00 | 0.00 | 51 | 1031.3 |
| 20260510144536 | 61 | 105 | 3.0 | 11.0 | 0.00 | 0.00 | 0.00 | 49 | 1031.3 |
| 20260510144015 | 61 | 107 | 5.0 | 11.0 | 0.00 | 0.00 | 0.00 | 50 | 1031.3 |
| 20260510143518 | 62 | 74 | 3.0 | 9.0 | 0.00 | 0.00 | 0.00 | 52 | 1031.3 |
| 20260510143014 | 61 | 75 | 2.0 | 10.0 | 0.00 | 0.00 | 0.00 | 54 | 1031.3 |
| 20260510142525 | 61 | 150 | 5.0 | 10.0 | 0.00 | 0.00 | 0.00 | 54 | 1031.3 |
| 20260510142014 | 61 | 105 | 4.0 | 9.0 | 0.00 | 0.00 | 0.00 | 55 | 1031.3 |
| 20260510141514 | 61 | 116 | 3.0 | 9.0 | 0.00 | 0.00 | 0.00 | 56 | 1031.3 |
| 20260510141014 | 61 | 85 | 2.0 | 9.0 | 0.00 | 0.00 | 0.00 | 57 | 1031.3 |
| 20260510140512 | 61 | 86 | 1.0 | 9.0 | 0.00 | 0.00 | 0.00 | 61 | 1031.3 |
| 20260510140012 | 61 | 118 | 3.0 | 6.0 | 0.00 | 0.00 | 0.00 | 60 | 1031.3 |
| 20260510135512 | 60 | 143 | 0.0 | 7.0 | 0.00 | 0.00 | 0.00 | 63 | 1031.3 |
| 20260510135013 | 60 | 137 | 1.0 | 11.0 | 0.00 | 0.00 | 0.00 | 63 | 1031.3 |
| 20260510134512 | 60 | 129 | 3.0 | 11.0 | 0.00 | 0.00 | 0.00 | 63 | 1031.3 |
| 20260510134017 | 60 | 105 | 3.0 | 11.0 | 0.00 | 0.00 | 0.00 | 64 | 1031.3 |
| 20260510133511 | 59 | 113 | 2.0 | 11.0 | 0.00 | 0.00 | 0.00 | 63 | 1031.3 |
| 20260510133010 | 59 | 78 | 2.0 | 8.0 | 0.00 | 0.00 | 0.00 | 64 | 1031.3 |
| 20260510132510 | 59 | 91 | 2.0 | 5.0 | 0.00 | 0.00 | 0.00 | 66 | 1031.3 |
| 20260510132010 | 59 | 105 | 1.0 | 9.0 | 0.00 | 0.00 | 0.00 | 67 | 1031.3 |
| 20260510131510 | 58 | 129 | 0.0 | 4.0 | 0.00 | 0.00 | 0.00 | 70 | 1031.3 |
| 20260510131013 | 58 | 140 | 1.0 | 8.0 | 0.00 | 0.00 | 0.00 | 69 | 1031.3 |
| 20260510130510 | 58 | 128 | 2.0 | 8.0 | 0.00 | 0.00 | 0.00 | 69 | 1031.3 |
| 20260510130010 | 58 | 101 | 1.0 | 6.0 | 0.00 | 0.00 | 0.00 | 71 | 1031.3 |
| 20260510125509 | 58 | 126 | 1.0 | 8.0 | 0.00 | 0.00 | 0.00 | 71 | 1031.3 |
| 20260510125008 | 58 | 105 | 2.0 | 8.0 | 0.00 | 0.00 | 0.00 | 71 | 1031.3 |
| 20260510124512 | 58 | 94 | 0.0 | 5.0 | 0.00 | 0.00 | 0.00 | 71 | 1031.3 |
| 20260510124012 | 58 | 96 | 1.0 | 5.0 | 0.00 | 0.00 | 0.00 | 71 | 1031.3 |
| 20260510123510 | 58 | 91 | 2.0 | 9.0 | 0.00 | 0.00 | 0.00 | 72 | 1031.3 |
| 20260510123009 | 58 | 139 | 2.0 | 9.0 | 0.00 | 0.00 | 0.00 | 72 | 1031.3 |
| 20260510122506 | 58 | 75 | 1.0 | 5.0 | 0.00 | 0.00 | 0.00 | 75 | 1031.3 |
| 20260510122006 | 58 | 82 | 1.0 | 5.0 | 0.00 | 0.00 | 0.00 | 76 | 1031.3 |
| 20260510121506 | 58 | 91 | 1.0 | 5.0 | 0.00 | 0.00 | 0.00 | 78 | 1031.3 |
| 20260510121006 | 58 | 99 | 0.0 | 3.0 | 0.00 | 0.00 | 0.00 | 79 | 1031.3 |
| 20260510120506 | 59 | 91 | 0.0 | 7.0 | 0.00 | 0.00 | 0.00 | 79 | 1031.3 |
| 20260510120012 | 59 | 76 | 1.0 | 7.0 | 0.00 | 0.00 | 0.00 | 81 | 1031.3 |
| 20260510115506 | 59 | 50 | 1.0 | 7.0 | 0.00 | 0.00 | 0.00 | 81 | 1031.3 |
| 20260510115004 | 59 | 113 | 0.0 | 7.0 | 0.00 | 0.00 | 0.00 | 81 | 1031.3 |
| 20260510114504 | 59 | 84 | 0.0 | 7.0 | 0.00 | 0.00 | 0.00 | 82 | 1031.3 |
| 20260510114004 | 59 | 90 | 1.0 | 7.0 | 0.00 | 0.00 | 0.00 | 83 | 1031.3 |
| 20260510113504 | 59 | 120 | 1.0 | 7.0 | 0.00 | 0.00 | 0.00 | 83 | 1031.3 |
| 20260510113003 | 59 | 37 | 0.0 | 7.0 | 0.00 | 0.00 | 0.00 | 83 | 1031.3 |
| 20260510112503 | 59 | 104 | 1.0 | 6.0 | 0.00 | 0.00 | 0.00 | 84 | 1031.3 |
| 20260510112003 | 59 | 102 | 0.0 | 3.0 | 0.00 | 0.00 | 0.00 | 84 | 1031.3 |
| 20260510111502 | 59 | 85 | 0.0 | 7.0 | 0.00 | 0.00 | 0.00 | 84 | 1031.3 |
| 20260510111006 | 59 | 81 | 1.0 | 7.0 | 0.00 | 0.00 | 0.00 | 84 | 1031.3 |
| 20260510110502 | 59 | 65 | 3.0 | 7.0 | 0.00 | 0.00 | 0.00 | 84 | 1031.3 |
| 20260510110003 | 59 | 46 | 0.0 | 2.0 | 0.00 | 0.00 | 0.00 | 84 | 1031.3 |
| 20260510105601 | 59 | 55 | 0.0 | 2.0 | 0.00 | 0.00 | 0.00 | 84 | 1031.3 |
| 20260510105100 | 60 | 92 | 0.0 | 2.0 | 0.00 | 0.00 | 0.00 | 84 | 1031.3 |
| 20260510104611 | 60 | 144 | 0.0 | 2.0 | 0.00 | 0.00 | 0.00 | 84 | 1031.3 |
| 20260510104059 | 60 | 120 | 0.0 | 3.0 | 0.00 | 0.00 | 0.00 | 84 | 1031.3 |
| 20260510103559 | 60 | 104 | 0.0 | 3.0 | 0.00 | 0.00 | 0.00 | 84 | 1031.3 |
| 20260510103059 | 60 | 113 | 0.0 | 3.0 | 0.00 | 0.00 | 0.00 | 84 | 1031.3 |
| 20260510102559 | 60 | 102 | 0.0 | 3.0 | 0.00 | 0.00 | 0.00 | 84 | 1031.3 |
| 20260510102059 | 60 | 102 | 0.0 | 2.0 | 0.00 | 0.00 | 0.00 | 84 | 1031.3 |
| 20260510101604 | 60 | 108 | 0.0 | 2.0 | 0.00 | 0.00 | 0.00 | 84 | 1031.3 |
| 20260510101058 | 60 | 108 | 0.0 | 2.0 | 0.00 | 0.00 | 0.00 | 84 | 1031.3 |
| 20260510100558 | 60 | 91 | 0.0 | 2.0 | 0.00 | 0.00 | 0.00 | 84 | 1031.3 |
| 20260510100058 | 60 | 120 | 0.0 | 2.0 | 0.00 | 0.00 | 0.00 | 84 | 1031.3 |
| 20260510095557 | 60 | 117 | 0.0 | 2.0 | 0.00 | 0.00 | 0.00 | 84 | 1031.3 |
| 20260510095057 | 60 | 116 | 0.0 | 3.0 | 0.00 | 0.00 | 0.00 | 83 | 1031.3 |
| 20260510094612 | 61 | 108 | 0.0 | 3.0 | 0.00 | 0.00 | 0.00 | 82 | 1031.3 |
| 20260510094056 | 61 | 105 | 0.0 | 5.0 | 0.00 | 0.00 | 0.00 | 81 | 1031.3 |
| 20260510093556 | 61 | 120 | 0.0 | 9.0 | 0.00 | 0.00 | 0.00 | 81 | 1031.3 |
| 20260510093057 | 61 | 90 | 3.0 | 9.0 | 0.00 | 0.00 | 0.00 | 81 | 1031.3 |
| 20260510092559 | 61 | 118 | 0.0 | 5.0 | 0.00 | 0.00 | 0.00 | 81 | 1031.3 |
| 20260510092056 | 61 | 116 | 0.0 | 5.0 | 0.00 | 0.00 | 0.00 | 81 | 1031.3 |
| 20260510091557 | 60 | 112 | 0.0 | 5.0 | 0.00 | 0.00 | 0.00 | 82 | 1031.3 |
| 20260510091056 | 60 | 115 | 0.0 | 6.0 | 0.00 | 0.00 | 0.00 | 83 | 1031.3 |
| 20260510090556 | 60 | 75 | 0.0 | 4.0 | 0.00 | 0.00 | 0.00 | 83 | 1031.3 |
| 20260510090055 | 60 | 55 | 0.0 | 4.0 | 0.00 | 0.00 | 0.00 | 83 | 1031.3 |
| 20260510085554 | 60 | 73 | 0.0 | 4.0 | 0.00 | 0.00 | 0.00 | 82 | 1031.3 |
| 20260510085053 | 60 | 40 | 0.0 | 3.0 | 0.00 | 0.00 | 0.00 | 81 | 1031.3 |
| 20260510084601 | 61 | 47 | 0.0 | 3.0 | 0.00 | 0.00 | 0.00 | 80 | 1031.3 |
| 20260510084053 | 61 | 51 | 0.0 | 0.0 | 0.00 | 0.00 | 0.00 | 80 | 1031.3 |
| 20260510083552 | 61 | 38 | 0.0 | 0.0 | 0.00 | 0.00 | 0.00 | 80 | 1031.3 |
| 20260510083113 | 61 | 39 | 0.0 | 2.0 | 0.00 | 0.00 | 0.00 | 79 | 1031.3 |
| 20260510082551 | 61 | 30 | 0.0 | 2.0 | 0.00 | 0.00 | 0.00 | 79 | 1031.3 |
| 20260510082052 | 61 | 51 | 0.0 | 2.0 | 0.00 | 0.00 | 0.00 | 78 | 1031.3 |
| 20260510081610 | 61 | 47 | 1.0 | 2.0 | 0.00 | 0.00 | 0.00 | 78 | 1031.3 |
| 20260510081051 | 62 | 49 | 1.0 | 2.0 | 0.00 | 0.00 | 0.00 | 77 | 1031.3 |
| 20260510080549 | 62 | 97 | 0.0 | 0.0 | 0.00 | 0.00 | 0.00 | 77 | 1031.3 |
| 20260510080048 | 62 | 127 | 0.0 | 3.0 | 0.00 | 0.00 | 0.00 | 76 | 1031.3 |
| 20260510075548 | 62 | 127 | 0.0 | 3.0 | 0.00 | 0.00 | 0.00 | 76 | 1031.3 |
| 20260510075048 | 62 | 134 | 0.0 | 4.0 | 0.00 | 0.00 | 0.00 | 76 | 1031.3 |
| 20260510074551 | 62 | 133 | 1.0 | 4.0 | 0.00 | 0.00 | 0.00 | 76 | 1031.3 |
| 20260510074051 | 62 | 132 | 0.0 | 2.0 | 0.00 | 0.00 | 0.00 | 75 | 1031.3 |
| 20260510073547 | 62 | 53 | 0.0 | 5.0 | 0.00 | 0.00 | 0.00 | 75 | 1031.3 |
| 20260510073051 | 62 | 48 | 1.0 | 5.0 | 0.00 | 0.00 | 0.00 | 75 | 1031.3 |
| 20260510072547 | 62 | 49 | 1.0 | 3.0 | 0.00 | 0.00 | 0.00 | 74 | 1031.3 |
| 20260510072047 | 62 | 51 | 0.0 | 7.0 | 0.00 | 0.00 | 0.00 | 74 | 1031.3 |
| 20260510071547 | 62 | 47 | 3.0 | 7.0 | 0.00 | 0.00 | 0.00 | 74 | 1031.3 |
| 20260510071048 | 62 | 36 | 2.0 | 5.0 | 0.00 | 0.00 | 0.00 | 73 | 1031.3 |
| 20260510070544 | 63 | 31 | 3.0 | 4.0 | 0.00 | 0.00 | 0.00 | 71 | 1031.3 |
| 20260510070043 | 64 | 14 | 3.0 | 5.0 | 0.00 | 0.00 | 0.00 | 71 | 1031.3 |
| 20260510065546 | 64 | 36 | 3.0 | 5.0 | 0.00 | 0.00 | 0.00 | 70 | 1031.3 |
| 20260510065042 | 64 | 40 | 3.0 | 5.0 | 0.00 | 0.00 | 0.00 | 69 | 1031.3 |
| 20260510064544 | 64 | 41 | 3.0 | 6.0 | 0.00 | 0.00 | 0.00 | 69 | 1031.3 |
| 20260510064042 | 64 | 47 | 4.0 | 6.0 | 0.00 | 0.00 | 0.00 | 69 | 1031.3 |
| 20260510063542 | 64 | 44 | 2.0 | 5.0 | 0.00 | 0.00 | 0.00 | 68 | 1031.3 |
| 20260510063042 | 64 | 24 | 1.0 | 5.0 | 0.00 | 0.00 | 0.00 | 67 | 1031.3 |
| 20260510062542 | 64 | 47 | 3.0 | 5.0 | 0.00 | 0.00 | 0.00 | 67 | 1031.3 |
| 20260510062039 | 64 | 28 | 0.0 | 2.0 | 0.00 | 0.00 | 0.00 | 66 | 1031.3 |
| 20260510061549 | 65 | 281 | 0.0 | 0.0 | 0.00 | 0.00 | 0.00 | 65 | 1031.3 |
| 20260510061038 | 65 | 281 | 0.0 | 0.0 | 0.00 | 0.00 | 0.00 | 64 | 1031.3 |
| 20260510060537 | 65 | 281 | 0.0 | 0.0 | 0.00 | 0.00 | 0.00 | 64 | 1031.3 |
| 20260510060041 | 65 | 281 | 0.0 | 0.0 | 0.00 | 0.00 | 0.00 | 63 | 1031.3 |
| 20260510055534 | 66 | 281 | 0.0 | 0.0 | 0.00 | 0.01 | 0.00 | 61 | 1031.3 |
| 20260510055034 | 66 | 281 | 0.0 | 0.0 | 0.00 | 0.01 | 0.00 | 61 | 1031.3 |
| 20260510054533 | 66 | 281 | 0.0 | 1.0 | 0.00 | 0.01 | 0.00 | 61 | 1031.3 |
| 20260510054034 | 67 | 281 | 0.0 | 1.0 | 0.00 | 0.01 | 0.00 | 60 | 1031.3 |
| 20260510053532 | 67 | 1 | 0.0 | 0.0 | 0.00 | 0.01 | 0.00 | 59 | 1031.3 |
| 20260510053032 | 67 | 250 | 0.0 | 3.0 | 0.00 | 0.01 | 0.00 | 59 | 1031.3 |
| 20260510052531 | 67 | 236 | 0.0 | 3.0 | 0.00 | 0.01 | 0.00 | 59 | 1031.3 |
| 20260510052033 | 67 | 237 | 1.0 | 3.0 | 0.00 | 0.01 | 0.00 | 58 | 1031.3 |
| 20260510051529 | 67 | 257 | 1.0 | 3.0 | 0.00 | 0.01 | 0.00 | 58 | 1031.3 |
| 20260510051028 | 68 | 272 | 0.0 | 3.0 | 0.00 | 0.01 | 0.00 | 57 | 1031.3 |
| 20260510050527 | 68 | 264 | 1.0 | 3.0 | 0.00 | 0.01 | 0.00 | 57 | 1031.3 |
| 20260510050027 | 68 | 249 | 0.0 | 2.0 | 0.00 | 0.01 | 0.00 | 56 | 1031.3 |
| 20260510045526 | 68 | 218 | 0.0 | 2.0 | 0.00 | 0.01 | 0.01 | 56 | 1031.3 |
| 20260510045026 | 69 | 210 | 1.0 | 2.0 | 0.00 | 0.01 | 0.01 | 56 | 1031.3 |
| 20260510044526 | 69 | 137 | 0.0 | 2.0 | 0.00 | 0.01 | 0.01 | 55 | 1031.3 |
| 20260510044025 | 69 | 63 | 0.0 | 3.0 | 0.00 | 0.01 | 0.01 | 55 | 1031.3 |
| 20260510043526 | 69 | 30 | 1.0 | 3.0 | 0.00 | 0.01 | 0.01 | 55 | 1031.3 |
| 20260510043026 | 69 | 16 | 1.0 | 4.0 | 0.00 | 0.01 | 0.01 | 54 | 1031.3 |
| 20260510042526 | 69 | 20 | 1.0 | 4.0 | 0.00 | 0.01 | 0.01 | 54 | 1031.3 |
| 20260510042028 | 69 | 24 | 0.0 | 2.0 | 0.00 | 0.01 | 0.01 | 54 | 1031.3 |
| 20260510041533 | 69 | 4 | 1.0 | 4.0 | 0.00 | 0.01 | 0.01 | 54 | 1031.3 |
| 20260510041029 | 69 | 31 | 1.0 | 6.0 | 0.00 | 0.01 | 0.01 | 54 | 1031.3 |
| 20260510040525 | 69 | 21 | 4.0 | 6.0 | 0.00 | 0.01 | 0.01 | 54 | 1031.3 |
| 20260510040024 | 68 | 73 | 3.0 | 9.0 | 0.00 | 0.01 | 0.01 | 55 | 1031.3 |
| 20260510035524 | 68 | 44 | 3.0 | 12.0 | 0.00 | 0.24 | 0.01 | 55 | 1031.3 |
| 20260510035026 | 68 | 9 | 4.0 | 19.0 | 0.00 | 0.24 | 0.01 | 55 | 1031.3 |
| 20260510034528 | 66 | 54 | 11.0 | 19.0 | 0.00 | 0.24 | 0.01 | 62 | 1031.3 |
| 20260510034024 | 70 | 51 | 0.0 | 3.0 | 0.00 | 0.24 | 0.01 | 62 | 1031.3 |
| 20260510033526 | 70 | 242 | 0.0 | 3.0 | 0.00 | 0.24 | 0.01 | 48 | 1031.3 |
| 20260510033024 | 70 | 296 | 1.0 | 4.0 | 0.00 | 0.24 | 0.01 | 48 | 1031.3 |
| 20260510032523 | 70 | 264 | 0.0 | 3.0 | 0.00 | 0.24 | 0.01 | 48 | 1031.3 |
| 20260510032026 | 70 | 244 | 0.0 | 3.0 | 0.00 | 0.24 | 0.01 | 49 | 1031.3 |
| 20260510031524 | 70 | 205 | 0.0 | 4.0 | 0.00 | 0.24 | 0.01 | 49 | 1031.3 |
| 20260510031023 | 71 | 283 | 1.0 | 4.0 | 0.00 | 0.24 | 0.01 | 47 | 1031.3 |
| 20260510030523 | 71 | 266 | 1.0 | 5.0 | 0.00 | 0.24 | 0.01 | 47 | 1031.3 |
| 20260510030027 | 70 | 277 | 1.0 | 5.0 | 0.00 | 0.24 | 0.01 | 48 | 1031.3 |
| 20260510025523 | 71 | 278 | 1.0 | 3.0 | 0.00 | 0.43 | 0.01 | 47 | 1031.3 |
| 20260510025023 | 71 | 293 | 0.0 | 3.0 | 0.00 | 0.43 | 0.01 | 48 | 1031.3 |
| 20260510024532 | 71 | 295 | 0.0 | 5.0 | 0.00 | 0.43 | 0.01 | 47 | 1031.3 |
| 20260510024022 | 71 | 295 | 1.0 | 4.0 | 0.00 | 0.43 | 0.01 | 46 | 1031.3 |
| 20260510023522 | 71 | 275 | 0.0 | 3.0 | 0.00 | 0.43 | 0.01 | 46 | 1031.3 |
| 20260510023022 | 71 | 226 | 0.0 | 4.0 | 0.00 | 0.43 | 0.01 | 45 | 1031.3 |
| 20260510022522 | 72 | 275 | 1.0 | 4.0 | 0.00 | 0.43 | 0.01 | 45 | 1031.3 |
| 20260510022023 | 72 | 281 | 1.0 | 5.0 | 0.00 | 0.43 | 0.01 | 45 | 1031.3 |
| 20260510021529 | 72 | 295 | 1.0 | 5.0 | 0.00 | 0.43 | 0.01 | 45 | 1031.3 |
| 20260510021021 | 72 | 260 | 1.0 | 5.0 | 0.00 | 0.43 | 0.01 | 45 | 1031.3 |
| 20260510020522 | 72 | 276 | 2.0 | 6.0 | 0.00 | 0.43 | 0.01 | 45 | 1031.3 |
| 20260510020021 | 72 | 285 | 1.0 | 6.0 | 0.00 | 0.43 | 0.01 | 45 | 1031.3 |
| 20260510015521 | 72 | 292 | 2.0 | 5.0 | 0.00 | 0.44 | 0.01 | 45 | 1031.3 |
| 20260510015023 | 73 | 281 | 2.0 | 6.0 | 0.00 | 0.44 | 0.01 | 45 | 1031.3 |
| 20260510014521 | 73 | 275 | 2.0 | 6.0 | 0.00 | 0.44 | 0.01 | 44 | 1031.3 |
| 20260510014021 | 74 | 282 | 2.0 | 6.0 | 0.00 | 0.44 | 0.01 | 44 | 1031.3 |
| 20260510013521 | 74 | 289 | 2.0 | 6.0 | 0.00 | 0.44 | 0.01 | 43 | 1031.3 |
| 20260510013020 | 74 | 281 | 2.0 | 5.0 | 0.00 | 0.44 | 0.01 | 42 | 1031.3 |
| 20260510012521 | 74 | 273 | 2.0 | 5.0 | 0.00 | 0.44 | 0.01 | 42 | 1031.3 |
| 20260510012020 | 75 | 283 | 2.0 | 6.0 | 0.00 | 0.44 | 0.01 | 41 | 1031.3 |
| 20260510011521 | 75 | 289 | 2.0 | 6.0 | 0.00 | 0.44 | 0.01 | 41 | 1031.3 |
| 20260510011020 | 75 | 285 | 2.0 | 5.0 | 0.00 | 0.44 | 0.01 | 41 | 1031.3 |
| 20260510010520 | 75 | 297 | 2.0 | 5.0 | 0.00 | 0.44 | 0.01 | 40 | 1031.3 |
| 20260510010019 | 76 | 285 | 2.0 | 4.0 | 0.00 | 0.44 | 0.01 | 40 | 1031.3 |
| 20260510005519 | 76 | 307 | 0.0 | 4.0 | 0.00 | 0.44 | 0.01 | 39 | 1031.3 |
| 20260510005021 | 76 | 303 | 1.0 | 4.0 | 0.00 | 0.44 | 0.01 | 40 | 1031.3 |
| 20260510004519 | 76 | 288 | 1.0 | 4.0 | 0.00 | 0.44 | 0.01 | 39 | 1031.3 |
| 20260510004019 | 77 | 293 | 1.0 | 4.0 | 0.00 | 0.44 | 0.01 | 39 | 1031.3 |
| 20260510003519 | 77 | 273 | 2.0 | 4.0 | 0.00 | 0.44 | 0.01 | 38 | 1031.3 |
| 20260510003026 | 77 | 294 | 2.0 | 4.0 | 0.00 | 0.44 | 0.01 | 38 | 1031.3 |
| 20260510002518 | 78 | 288 | 2.0 | 4.0 | 0.00 | 0.44 | 0.01 | 39 | 1031.3 |
| 20260510002019 | 78 | 296 | 1.0 | 4.0 | 0.00 | 0.44 | 0.01 | 38 | 1031.3 |
| 20260510001520 | 78 | 274 | 2.0 | 4.0 | 0.00 | 0.44 | 0.01 | 38 | 1031.3 |
| 20260510001020 | 78 | 309 | 2.0 | 4.0 | 0.00 | 0.44 | 0.01 | 38 | 1031.3 |
| 20260510000520 | 79 | 285 | 3.0 | 6.0 | 0.00 | 0.44 | 0.01 | 37 | 1031.3 |
| 20260510000018 | 79 | 300 | 2.0 | 6.0 | 0.00 | 0.44 | 0.01 | 37 | 1031.3 |
| 20260509235518 | 79 | 316 | 3.0 | 6.0 | 0.00 | 0.44 | 0.01 | 37 | 1031.3 |
| 20260509235018 | 79 | 295 | 2.0 | 6.0 | 0.00 | 0.44 | 0.01 | 37 | 1031.3 |
| 20260509234531 | 80 | 300 | 2.0 | 7.0 | 0.00 | 0.44 | 0.01 | 35 | 1031.3 |
| 20260509234020 | 80 | 298 | 1.0 | 5.0 | 0.00 | 0.44 | 0.01 | 36 | 1031.3 |
| 20260509233517 | 80 | 310 | 2.0 | 4.0 | 0.00 | 0.44 | 0.01 | 34 | 1031.3 |
| 20260509233017 | 81 | 343 | 0.0 | 4.0 | 0.00 | 0.44 | 0.01 | 36 | 1031.3 |
| 20260509232518 | 80 | 342 | 1.0 | 6.0 | 0.00 | 0.44 | 0.01 | 34 | 1031.3 |
| 20260509232018 | 80 | 355 | 3.0 | 7.0 | 0.00 | 0.44 | 0.01 | 31 | 1031.3 |
| 20260509231516 | 80 | 339 | 2.0 | 7.0 | 0.00 | 0.44 | 0.01 | 33 | 1031.3 |
| 20260509231016 | 81 | 332 | 2.0 | 7.0 | 0.00 | 0.44 | 0.01 | 34 | 1031.3 |
| 20260509230516 | 80 | 360 | 2.0 | 7.0 | 0.00 | 0.44 | 0.01 | 32 | 1031.3 |
| 20260509230016 | 81 | 20 | 3.0 | 7.0 | 0.00 | 0.44 | 0.01 | 33 | 1031.3 |
| 20260509225515 | 81 | 300 | 2.0 | 7.0 | 0.00 | 0.44 | 0.01 | 33 | 1031.3 |
| 20260509225015 | 81 | 351 | 1.0 | 7.0 | 0.00 | 0.44 | 0.01 | 35 | 1031.3 |
| 20260509224515 | 81 | 353 | 2.0 | 8.0 | 0.00 | 0.44 | 0.01 | 34 | 1031.3 |
| 20260509224015 | 80 | 348 | 4.0 | 11.0 | 0.00 | 0.44 | 0.01 | 32 | 1031.3 |
| 20260509223517 | 81 | 330 | 5.0 | 11.0 | 0.00 | 0.44 | 0.01 | 33 | 1031.3 |
| 20260509223016 | 81 | 329 | 3.0 | 9.0 | 0.00 | 0.44 | 0.01 | 37 | 1031.3 |
| 20260509222515 | 81 | 7 | 2.0 | 7.0 | 0.00 | 0.44 | 0.01 | 34 | 1031.3 |
| 20260509222013 | 81 | 48 | 1.0 | 8.0 | 0.00 | 0.44 | 0.01 | 37 | 1031.3 |
| 20260509221514 | 81 | 360 | 0.0 | 11.0 | 0.00 | 0.44 | 0.01 | 37 | 1031.3 |
| 20260509221013 | 80 | 345 | 6.0 | 11.0 | 0.00 | 0.44 | 0.01 | 34 | 1031.3 |
| 20260509220512 | 81 | 343 | 4.0 | 9.0 | 0.00 | 0.44 | 0.01 | 34 | 1031.3 |
| 20260509220014 | 80 | 357 | 3.0 | 11.0 | 0.00 | 0.44 | 0.01 | 34 | 1031.3 |
| 20260509215516 | 80 | 333 | 3.0 | 10.0 | 0.00 | 0.44 | 0.01 | 33 | 1031.3 |
| 20260509215011 | 81 | 39 | 3.0 | 10.0 | 0.00 | 0.44 | 0.01 | 33 | 1031.3 |
| 20260509214512 | 80 | 352 | 4.0 | 10.0 | 0.00 | 0.44 | 0.01 | 32 | 1031.3 |
| 20260509214017 | 80 | 326 | 5.0 | 10.0 | 0.00 | 0.44 | 0.01 | 32 | 1031.3 |
| 20260509213513 | 80 | 6 | 3.0 | 11.0 | 0.00 | 0.44 | 0.01 | 34 | 1031.3 |
| 20260509213012 | 80 | 297 | 7.0 | 11.0 | 0.00 | 0.44 | 0.01 | 34 | 1031.3 |
| 20260509212513 | 81 | 282 | 5.0 | 10.0 | 0.00 | 0.44 | 0.01 | 33 | 1031.3 |
| 20260509212011 | 81 | 306 | 1.0 | 10.0 | 0.00 | 0.44 | 0.01 | 39 | 1031.3 |
| 20260509211511 | 80 | 360 | 5.0 | 10.0 | 0.00 | 0.44 | 0.01 | 34 | 1031.3 |
| 20260509211011 | 80 | 332 | 3.0 | 8.0 | 0.00 | 0.44 | 0.01 | 37 | 1031.3 |
| 20260509210510 | 80 | 326 | 4.0 | 9.0 | 0.00 | 0.44 | 0.01 | 35 | 1031.3 |
| 20260509210009 | 80 | 313 | 2.0 | 13.0 | 0.00 | 0.44 | 0.01 | 39 | 1031.3 |
| 20260509205508 | 80 | 360 | 4.0 | 13.0 | 0.00 | 0.44 | 0.01 | 36 | 1031.3 |
| 20260509205008 | 80 | 2 | 5.0 | 10.0 | 0.00 | 0.44 | 0.01 | 34 | 1031.3 |
| 20260509204508 | 80 | 15 | 2.0 | 10.0 | 0.00 | 0.44 | 0.01 | 35 | 1031.3 |
| 20260509204008 | 80 | 359 | 2.0 | 9.0 | 0.00 | 0.44 | 0.01 | 36 | 1031.3 |
| 20260509203507 | 80 | 8 | 4.0 | 10.0 | 0.00 | 0.44 | 0.01 | 36 | 1031.3 |
| 20260509203008 | 80 | 358 | 4.0 | 10.0 | 0.00 | 0.44 | 0.01 | 37 | 1031.3 |
| 20260509202507 | 80 | 359 | 5.0 | 10.0 | 0.00 | 0.44 | 0.01 | 39 | 1031.3 |
| 20260509202008 | 79 | 301 | 1.0 | 9.0 | 0.00 | 0.44 | 0.01 | 39 | 1031.3 |
| 20260509201506 | 79 | 323 | 4.0 | 15.0 | 0.00 | 0.44 | 0.01 | 36 | 1031.3 |
| 20260509201005 | 79 | 38 | 5.0 | 15.0 | 0.00 | 0.44 | 0.01 | 37 | 1031.3 |
| 20260509200508 | 79 | 10 | 4.0 | 10.0 | 0.00 | 0.44 | 0.01 | 38 | 1031.3 |
| 20260509200004 | 79 | 324 | 2.0 | 13.0 | 0.00 | 0.44 | 0.01 | 38 | 1031.3 |
| 20260509195504 | 79 | 323 | 5.0 | 12.0 | 0.00 | 0.44 | 0.01 | 36 | 1031.3 |
| 20260509195002 | 79 | 25 | 5.0 | 11.0 | 0.00 | 0.44 | 0.01 | 38 | 1031.3 |
| 20260509194503 | 79 | 30 | 5.0 | 12.0 | 0.00 | 0.44 | 0.01 | 38 | 1031.3 |
| 20260509194002 | 79 | 345 | 8.0 | 12.0 | 0.00 | 0.44 | 0.01 | 37 | 1031.3 |
| 20260509193504 | 78 | 326 | 2.0 | 14.0 | 0.00 | 0.44 | 0.01 | 40 | 1031.3 |
| 20260509193001 | 78 | 42 | 4.0 | 14.0 | 0.00 | 0.44 | 0.01 | 39 | 1031.3 |
| 20260509192501 | 78 | 1 | 5.0 | 14.0 | 0.00 | 0.44 | 0.01 | 39 | 1031.3 |
| 20260509192101 | 78 | 293 | 4.0 | 14.0 | 0.00 | 0.44 | 0.01 | 38 | 1031.3 |
| 20260509191605 | 78 | 1 | 5.0 | 14.0 | 0.00 | 0.44 | 0.01 | 40 | 1031.3 |
| 20260509191059 | 78 | 340 | 3.0 | 11.0 | 0.00 | 0.44 | 0.01 | 42 | 1031.3 |
| 20260509190559 | 78 | 312 | 4.0 | 11.0 | 0.00 | 0.44 | 0.01 | 41 | 1031.3 |
| 20260509190100 | 78 | 302 | 4.0 | 13.0 | 0.00 | 0.44 | 0.01 | 45 | 1031.3 |
| 20260509185556 | 77 | 350 | 6.0 | 13.0 | 0.00 | 0.44 | 0.01 | 43 | 1031.3 |
| 20260509185056 | 77 | 15 | 7.0 | 16.0 | 0.00 | 0.44 | 0.01 | 42 | 1031.3 |
| 20260509184648 | 77 | 33 | 5.0 | 16.0 | 0.00 | 0.44 | 0.01 | 41 | 1031.3 |
| 20260509184055 | 77 | 6 | 7.0 | 14.0 | 0.00 | 0.44 | 0.01 | 41 | 1031.3 |
| 20260509183555 | 77 | 328 | 6.0 | 12.0 | 0.00 | 0.44 | 0.01 | 44 | 1031.3 |
| 20260509183104 | 77 | 6 | 5.0 | 11.0 | 0.00 | 0.44 | 0.01 | 45 | 1031.3 |
| 20260509182555 | 77 | 28 | 3.0 | 13.0 | 0.00 | 0.44 | 0.01 | 45 | 1031.3 |
| 20260509182054 | 76 | 349 | 5.0 | 13.0 | 0.00 | 0.44 | 0.01 | 44 | 1031.3 |
| 20260509181554 | 77 | 347 | 3.0 | 12.0 | 0.00 | 0.44 | 0.01 | 45 | 1031.3 |
| 20260509181054 | 76 | 29 | 5.0 | 13.0 | 0.00 | 0.44 | 0.01 | 44 | 1031.3 |
| 20260509180553 | 76 | 18 | 6.0 | 13.0 | 0.00 | 0.44 | 0.01 | 43 | 1031.3 |
| 20260509180058 | 76 | 351 | 4.0 | 10.0 | 0.00 | 0.44 | 0.01 | 44 | 1031.3 |
| 20260509175551 | 76 | 326 | 2.0 | 9.0 | 0.00 | 0.44 | 0.01 | 49 | 1031.3 |
| 20260509175051 | 76 | 35 | 3.0 | 15.0 | 0.00 | 0.44 | 0.01 | 48 | 1031.3 |
| 20260509174550 | 75 | 323 | 7.0 | 15.0 | 0.00 | 0.44 | 0.01 | 46 | 1031.3 |
| 20260509174048 | 75 | 20 | 4.0 | 14.0 | 0.00 | 0.44 | 0.01 | 49 | 1031.3 |
| 20260509173548 | 75 | 18 | 6.0 | 14.0 | 0.00 | 0.44 | 0.01 | 47 | 1031.3 |
| 20260509173048 | 75 | 41 | 5.0 | 10.0 | 0.00 | 0.44 | 0.01 | 49 | 1031.3 |
| 20260509172548 | 75 | 3 | 2.0 | 9.0 | 0.00 | 0.44 | 0.01 | 52 | 1031.3 |
| 20260509172046 | 74 | 6 | 4.0 | 9.0 | 0.00 | 0.44 | 0.01 | 49 | 1031.3 |
| 20260509171544 | 74 | 340 | 4.0 | 10.0 | 0.00 | 0.44 | 0.01 | 54 | 1031.3 |
| 20260509171046 | 74 | 325 | 4.0 | 10.0 | 0.00 | 0.44 | 0.01 | 50 | 1031.3 |
| 20260509170543 | 74 | 348 | 4.0 | 8.0 | 0.00 | 0.44 | 0.01 | 55 | 1031.3 |
| 20260509170042 | 73 | 297 | 2.0 | 8.0 | 0.00 | 0.44 | 0.01 | 57 | 1031.3 |
| 20260509165540 | 72 | 359 | 4.0 | 8.0 | 0.00 | 0.44 | 0.01 | 58 | 1031.3 |
| 20260509165039 | 72 | 333 | 2.0 | 11.0 | 0.00 | 0.44 | 0.01 | 62 | 1031.3 |
| 20260509164538 | 72 | 313 | 5.0 | 13.0 | 0.00 | 0.44 | 0.01 | 61 | 1031.3 |
| 20260509164040 | 72 | 330 | 3.0 | 13.0 | 0.00 | 0.44 | 0.01 | 60 | 1031.3 |
| 20260509163536 | 71 | 336 | 3.0 | 9.0 | 0.00 | 0.44 | 0.01 | 63 | 1031.3 |
| 20260509163043 | 71 | 307 | 4.0 | 8.0 | 0.00 | 0.44 | 0.01 | 64 | 1031.3 |
| 20260509162537 | 70 | 318 | 1.0 | 8.0 | 0.00 | 0.44 | 0.01 | 72 | 1031.3 |
| 20260509162035 | 70 | 18 | 2.0 | 8.0 | 0.00 | 0.44 | 0.01 | 70 | 1031.3 |
| 20260509161533 | 70 | 340 | 2.0 | 7.0 | 0.00 | 0.44 | 0.01 | 73 | 1031.3 |
| 20260509161030 | 69 | 332 | 0.0 | 5.0 | 0.00 | 0.44 | 0.01 | 77 | 1031.3 |
| 20260509160529 | 69 | 24 | 2.0 | 5.0 | 0.00 | 0.44 | 0.01 | 74 | 1031.3 |
| 20260509160028 | 68 | 342 | 1.0 | 4.0 | 0.00 | 0.44 | 0.01 | 75 | 1031.3 |
| 20260509155526 | 68 | 323 | 0.0 | 6.0 | 0.00 | 0.44 | 0.01 | 75 | 1031.3 |
| 20260509155030 | 67 | 37 | 1.0 | 8.0 | 0.00 | 0.44 | 0.01 | 75 | 1031.3 |
| 20260509154524 | 67 | 51 | 1.0 | 5.0 | 0.00 | 0.44 | 0.01 | 78 | 1031.3 |
| 20260509154025 | 66 | 333 | 1.0 | 6.0 | 0.00 | 0.44 | 0.01 | 81 | 1031.3 |
| 20260509153524 | 66 | 320 | 2.0 | 7.0 | 0.00 | 0.44 | 0.01 | 80 | 1031.3 |